| time (UTC) | temp C | wind direction | speed KPH | gust KPH | rain 1hr cm | rain 24hr cm | rain mn cm | humidity % | barometer mb |
| 20260906193419 | 40 | 317 | 3.2 | 3.2 | 0.00 | 0.00 | 0.00 | 34 | 1013.3 |
| 20260906192914 | 40 | 328 | 1.6 | 1.6 | 0.00 | 0.00 | 0.00 | 35 | 1013.3 |
| 20260906192414 | 40 | 335 | 3.2 | 6.4 | 0.00 | 0.00 | 0.00 | 36 | 1013.5 |
| 20260906191913 | 41 | 194 | 6.4 | 9.7 | 0.00 | 0.00 | 0.00 | 34 | 1013.5 |
| 20260906191409 | 39 | 323 | 1.6 | 1.6 | 0.00 | 0.00 | 0.00 | 35 | 1013.5 |
| 20260906190907 | 40 | 180 | 4.8 | 4.8 | 0.00 | 0.00 | 0.00 | 35 | 1013.7 |
| 20260906190406 | 40 | 136 | 3.2 | 4.8 | 0.00 | 0.00 | 0.00 | 33 | 1013.6 |
| 20260906185901 | 39 | 3 | 0.0 | 0.0 | 0.00 | 0.00 | 0.00 | 36 | 1013.7 |
| 20260906185400 | 39 | 343 | 1.6 | 1.6 | 0.00 | 0.00 | 0.00 | 34 | 1013.8 |
| 20260906184900 | 38 | 351 | 3.2 | 4.8 | 0.00 | 0.00 | 0.00 | 37 | 1013.8 |
| 20260906184355 | 40 | 306 | 3.2 | 6.4 | 0.00 | 0.00 | 0.00 | 36 | 1013.8 |
| 20260906183851 | 40 | 311 | 1.6 | 3.2 | 0.00 | 0.00 | 0.00 | 35 | 1013.9 |
| 20260906183348 | 40 | 151 | 3.2 | 4.8 | 0.00 | 0.00 | 0.00 | 34 | 1014.0 |
| 20260906182841 | 40 | 334 | 1.6 | 3.2 | 0.00 | 0.00 | 0.00 | 37 | 1014.1 |
| 20260906182338 | 40 | 24 | 3.2 | 3.2 | 0.00 | 0.00 | 0.00 | 37 | 1014.3 |
| 20260906181837 | 39 | 359 | 0.0 | 0.0 | 0.00 | 0.00 | 0.00 | 37 | 1014.3 |
| 20260906181335 | 38 | 3 | 1.6 | 3.2 | 0.00 | 0.00 | 0.00 | 38 | 1014.5 |
| 20260906180835 | 39 | 322 | 1.6 | 3.2 | 0.00 | 0.00 | 0.00 | 39 | 1014.7 |
| 20260906180330 | 39 | 289 | 3.2 | 3.2 | 0.00 | 0.00 | 0.00 | 38 | 1014.6 |
| 20260906175827 | 40 | 350 | 1.6 | 3.2 | 0.00 | 0.00 | 0.00 | 37 | 1014.9 |
| 20260906175322 | 38 | 5 | 0.0 | 0.0 | 0.00 | 0.00 | 0.00 | 38 | 1014.8 |
| 20260906174821 | 38 | 269 | 3.2 | 3.2 | 0.00 | 0.00 | 0.00 | 37 | 1014.9 |
| 20260906174315 | 39 | 292 | 1.6 | 4.8 | 0.00 | 0.00 | 0.00 | 37 | 1015.0 |
| 20260906173810 | 39 | 217 | 4.8 | 4.8 | 0.00 | 0.00 | 0.00 | 37 | 1015.2 |
| 20260906173307 | 38 | 13 | 1.6 | 1.6 | 0.00 | 0.00 | 0.00 | 39 | 1015.2 |
| 20260906172805 | 38 | 267 | 3.2 | 3.2 | 0.00 | 0.00 | 0.00 | 39 | 1015.5 |
| 20260906172301 | 38 | 325 | 3.2 | 4.8 | 0.00 | 0.00 | 0.00 | 38 | 1015.3 |
| 20260906171756 | 38 | 25 | 0.0 | 0.0 | 0.00 | 0.00 | 0.00 | 39 | 1015.5 |
| 20260906171251 | 38 | 35 | 1.6 | 1.6 | 0.00 | 0.00 | 0.00 | 40 | 1015.5 |
| 20260906170747 | 38 | 66 | 1.6 | 1.6 | 0.00 | 0.00 | 0.00 | 40 | 1015.5 |
| 20260906170243 | 38 | 70 | 1.6 | 3.2 | 0.00 | 0.00 | 0.00 | 40 | 1015.7 |
| 20260906165738 | 37 | 5 | 0.0 | 0.0 | 0.00 | 0.00 | 0.00 | 41 | 1015.8 |
| 20260906165238 | 38 | 158 | 4.8 | 4.8 | 0.00 | 0.00 | 0.00 | 39 | 1015.8 |
| 20260906164737 | 38 | 294 | 3.2 | 3.2 | 0.00 | 0.00 | 0.00 | 40 | 1016.0 |
| 20260906164232 | 37 | 63 | 0.0 | 0.0 | 0.00 | 0.00 | 0.00 | 41 | 1016.0 |
| 20260906163728 | 38 | 75 | 0.0 | 0.0 | 0.00 | 0.00 | 0.00 | 39 | 1016.0 |
| 20260906163225 | 37 | 53 | 0.0 | 0.0 | 0.00 | 0.00 | 0.00 | 41 | 1016.0 |
| 20260906162721 | 37 | 77 | 0.0 | 0.0 | 0.00 | 0.00 | 0.00 | 40 | 1015.9 |
| 20260906162216 | 36 | 76 | 0.0 | 0.0 | 0.00 | 0.00 | 0.00 | 43 | 1016.0 |
| 20260906161711 | 36 | 133 | 1.6 | 1.6 | 0.00 | 0.00 | 0.00 | 45 | 1016.1 |
| 20260906161210 | 36 | 164 | 1.6 | 3.2 | 0.00 | 0.00 | 0.00 | 45 | 1015.8 |
| 20260906160709 | 35 | 34 | 0.0 | 0.0 | 0.00 | 0.00 | 0.00 | 48 | 1015.9 |
| 20260906160208 | 35 | 339 | 3.2 | 3.2 | 0.00 | 0.00 | 0.00 | 47 | 1016.2 |
| 20260906155706 | 35 | 23 | 0.0 | 0.0 | 0.00 | 0.00 | 0.00 | 49 | 1016.1 |
| 20260906155201 | 35 | 25 | 0.0 | 0.0 | 0.00 | 0.00 | 0.00 | 49 | 1016.0 |
| 20260906154656 | 35 | 23 | 0.0 | 0.0 | 0.00 | 0.00 | 0.00 | 50 | 1015.9 |
| 20260906154150 | 35 | 31 | 0.0 | 0.0 | 0.00 | 0.00 | 0.00 | 49 | 1016.0 |
| 20260906153649 | 35 | 152 | 0.0 | 1.6 | 0.00 | 0.00 | 0.00 | 48 | 1015.9 |
| 20260906153144 | 35 | 107 | 0.0 | 0.0 | 0.00 | 0.00 | 0.00 | 49 | 1015.9 |
| 20260906152639 | 35 | 330 | 3.2 | 4.8 | 0.00 | 0.00 | 0.00 | 49 | 1015.8 |
| 20260906152138 | 33 | 30 | 0.0 | 0.0 | 0.00 | 0.00 | 0.00 | 52 | 1015.9 |
| 20260906151633 | 33 | 6 | 1.6 | 1.6 | 0.00 | 0.00 | 0.00 | 54 | 1015.7 |
| 20260906151129 | 32 | 7 | 0.0 | 0.0 | 0.00 | 0.00 | 0.00 | 56 | 1015.8 |
| 20260906150624 | 32 | 338 | 3.2 | 4.8 | 0.00 | 0.00 | 0.00 | 55 | 1015.7 |
| 20260906150120 | 31 | 332 | 3.2 | 4.8 | 0.00 | 0.00 | 0.00 | 56 | 1015.6 |
| 20260906145618 | 31 | 17 | 0.0 | 0.0 | 0.00 | 0.00 | 0.00 | 58 | 1015.7 |
| 20260906145113 | 31 | 29 | 0.0 | 0.0 | 0.00 | 0.00 | 0.00 | 58 | 1015.9 |
| 20260906144608 | 31 | 14 | 0.0 | 0.0 | 0.00 | 0.00 | 0.00 | 59 | 1015.8 |
| 20260906144103 | 31 | 15 | 0.0 | 1.6 | 0.00 | 0.00 | 0.00 | 59 | 1015.7 |
| 20260906143557 | 30 | 351 | 3.2 | 3.2 | 0.00 | 0.00 | 0.00 | 60 | 1015.7 |
| 20260906143054 | 30 | 329 | 3.2 | 3.2 | 0.00 | 0.00 | 0.00 | 59 | 1015.6 |
| 20260906142553 | 30 | 16 | 0.0 | 0.0 | 0.00 | 0.00 | 0.00 | 62 | 1015.6 |
| 20260906142049 | 30 | 16 | 0.0 | 0.0 | 0.00 | 0.00 | 0.00 | 61 | 1015.6 |
| 20260906141548 | 30 | 8 | 0.0 | 0.0 | 0.00 | 0.00 | 0.00 | 61 | 1015.8 |
| 20260906141044 | 30 | 26 | 0.0 | 0.0 | 0.00 | 0.00 | 0.00 | 63 | 1015.7 |
| 20260906140543 | 30 | 12 | 0.0 | 0.0 | 0.00 | 0.00 | 0.00 | 64 | 1015.6 |
| 20260906140043 | 29 | 4 | 0.0 | 0.0 | 0.00 | 0.00 | 0.00 | 64 | 1015.5 |
| 20260906135540 | 28 | 348 | 1.6 | 1.6 | 0.00 | 0.00 | 0.00 | 64 | 1015.4 |
| 20260906135036 | 28 | 351 | 1.6 | 3.2 | 0.00 | 0.00 | 0.00 | 65 | 1015.2 |
| 20260906134531 | 28 | 359 | 1.6 | 1.6 | 0.00 | 0.00 | 0.00 | 66 | 1015.4 |
| 20260906134026 | 28 | 4 | 1.6 | 1.6 | 0.00 | 0.00 | 0.00 | 67 | 1015.5 |
| 20260906133522 | 28 | 350 | 1.6 | 1.6 | 0.00 | 0.00 | 0.00 | 67 | 1015.3 |
| 20260906133017 | 28 | 294 | 3.2 | 3.2 | 0.00 | 0.00 | 0.00 | 66 | 1015.2 |
| 20260906132513 | 28 | 3 | 0.0 | 0.0 | 0.00 | 0.00 | 0.00 | 67 | 1015.5 |
| 20260906132008 | 27 | 106 | 1.6 | 1.6 | 0.00 | 0.00 | 0.00 | 67 | 1015.3 |
| 20260906131503 | 27 | 241 | 1.6 | 3.2 | 0.00 | 0.00 | 0.00 | 67 | 1015.5 |
| 20260906130958 | 28 | 342 | 1.6 | 1.6 | 0.00 | 0.00 | 0.00 | 67 | 1015.3 |
| 20260906130457 | 27 | 8 | 1.6 | 1.6 | 0.00 | 0.00 | 0.00 | 67 | 1015.2 |
| 20260906125952 | 27 | 11 | 0.0 | 0.0 | 0.00 | 0.00 | 0.00 | 68 | 1015.3 |
| 20260906125450 | 27 | 10 | 0.0 | 0.0 | 0.00 | 0.00 | 0.00 | 69 | 1015.4 |
| 20260906124949 | 27 | 5 | 0.0 | 0.0 | 0.00 | 0.00 | 0.00 | 69 | 1015.0 |
| 20260906124444 | 27 | 7 | 0.0 | 0.0 | 0.00 | 0.00 | 0.00 | 70 | 1015.0 |
| 20260906123939 | 26 | 359 | 0.0 | 0.0 | 0.00 | 0.00 | 0.00 | 71 | 1014.9 |
| 20260906123439 | 26 | 4 | 0.0 | 0.0 | 0.00 | 0.00 | 0.00 | 72 | 1015.0 |
| 20260906122938 | 26 | 5 | 0.0 | 0.0 | 0.00 | 0.00 | 0.00 | 72 | 1014.8 |
| 20260906122433 | 26 | 355 | 0.0 | 0.0 | 0.00 | 0.00 | 0.00 | 73 | 1014.9 |
| 20260906121930 | 26 | 12 | 0.0 | 0.0 | 0.00 | 0.00 | 0.00 | 74 | 1014.8 |
| 20260906121426 | 26 | 12 | 0.0 | 0.0 | 0.00 | 0.00 | 0.00 | 74 | 1014.7 |
| 20260906120923 | 26 | 12 | 0.0 | 0.0 | 0.00 | 0.00 | 0.00 | 73 | 1014.7 |
| 20260906120418 | 26 | 12 | 0.0 | 0.0 | 0.00 | 0.00 | 0.00 | 72 | 1014.7 |
| 20260906115914 | 26 | 12 | 0.0 | 0.0 | 0.00 | 0.00 | 0.00 | 72 | 1014.4 |
| 20260906115409 | 26 | 12 | 0.0 | 0.0 | 0.00 | 0.00 | 0.00 | 71 | 1014.5 |
| 20260906114908 | 26 | 15 | 0.0 | 0.0 | 0.00 | 0.00 | 0.00 | 71 | 1014.4 |
| 20260906114403 | 26 | 15 | 0.0 | 0.0 | 0.00 | 0.00 | 0.00 | 71 | 1014.3 |
| 20260906113859 | 26 | 15 | 0.0 | 0.0 | 0.00 | 0.00 | 0.00 | 71 | 1014.2 |
| 20260906113358 | 26 | 22 | 0.0 | 0.0 | 0.00 | 0.00 | 0.00 | 70 | 1014.3 |
| 20260906112854 | 26 | 22 | 0.0 | 0.0 | 0.00 | 0.00 | 0.00 | 70 | 1014.4 |
| 20260906112350 | 26 | 23 | 0.0 | 0.0 | 0.00 | 0.00 | 0.00 | 70 | 1014.2 |
| 20260906111849 | 26 | 23 | 0.0 | 0.0 | 0.00 | 0.00 | 0.00 | 71 | 1014.2 |
| 20260906111349 | 26 | 23 | 0.0 | 0.0 | 0.00 | 0.00 | 0.00 | 71 | 1014.3 |
| 20260906110844 | 26 | 349 | 0.0 | 0.0 | 0.00 | 0.00 | 0.00 | 70 | 1014.2 |
| 20260906110340 | 27 | 348 | 0.0 | 0.0 | 0.00 | 0.00 | 0.00 | 69 | 1014.1 |
| 20260906105839 | 27 | 348 | 0.0 | 0.0 | 0.00 | 0.00 | 0.00 | 69 | 1014.0 |
| 20260906105335 | 27 | 348 | 0.0 | 0.0 | 0.00 | 0.00 | 0.00 | 69 | 1014.0 |
| 20260906104831 | 27 | 348 | 0.0 | 0.0 | 0.00 | 0.00 | 0.00 | 68 | 1013.9 |
| 20260906104329 | 27 | 348 | 0.0 | 0.0 | 0.00 | 0.00 | 0.00 | 69 | 1013.9 |
| 20260906103828 | 27 | 348 | 0.0 | 0.0 | 0.00 | 0.00 | 0.00 | 69 | 1014.0 |
| 20260906103326 | 27 | 349 | 0.0 | 0.0 | 0.00 | 0.00 | 0.00 | 69 | 1013.8 |
| 20260906102822 | 27 | 349 | 0.0 | 0.0 | 0.00 | 0.00 | 0.00 | 69 | 1014.0 |
| 20260906102321 | 27 | 349 | 0.0 | 0.0 | 0.00 | 0.00 | 0.00 | 69 | 1013.9 |
| 20260906101817 | 27 | 349 | 0.0 | 0.0 | 0.00 | 0.00 | 0.00 | 69 | 1014.1 |
| 20260906101312 | 27 | 349 | 0.0 | 0.0 | 0.00 | 0.00 | 0.00 | 68 | 1014.2 |
| 20260906100808 | 27 | 349 | 0.0 | 0.0 | 0.00 | 0.00 | 0.00 | 67 | 1014.0 |
| 20260906100306 | 27 | 349 | 0.0 | 0.0 | 0.00 | 0.00 | 0.00 | 67 | 1013.9 |
| 20260906095802 | 27 | 349 | 0.0 | 0.0 | 0.00 | 0.00 | 0.00 | 66 | 1014.0 |
| 20260906095257 | 27 | 349 | 0.0 | 0.0 | 0.00 | 0.00 | 0.00 | 66 | 1014.1 |
| 20260906094756 | 28 | 349 | 0.0 | 0.0 | 0.00 | 0.00 | 0.00 | 65 | 1014.2 |
| 20260906094251 | 28 | 349 | 0.0 | 0.0 | 0.00 | 0.00 | 0.00 | 65 | 1014.0 |
| 20260906093747 | 28 | 349 | 0.0 | 0.0 | 0.00 | 0.00 | 0.00 | 64 | 1013.9 |
| 20260906093243 | 28 | 349 | 0.0 | 0.0 | 0.00 | 0.00 | 0.00 | 64 | 1013.8 |
| 20260906092738 | 28 | 349 | 0.0 | 0.0 | 0.00 | 0.00 | 0.00 | 63 | 1013.9 |
| 20260906092238 | 28 | 351 | 0.0 | 1.6 | 0.00 | 0.00 | 0.00 | 64 | 1013.8 |
| 20260906091733 | 28 | 351 | 0.0 | 0.0 | 0.00 | 0.00 | 0.00 | 64 | 1013.8 |
| 20260906091229 | 28 | 351 | 0.0 | 0.0 | 0.00 | 0.00 | 0.00 | 63 | 1013.9 |
| 20260906090726 | 28 | 351 | 0.0 | 0.0 | 0.00 | 0.00 | 0.00 | 63 | 1013.8 |
| 20260906090225 | 28 | 351 | 0.0 | 0.0 | 0.00 | 0.00 | 0.00 | 62 | 1013.8 |
| 20260906085724 | 28 | 354 | 0.0 | 0.0 | 0.00 | 0.00 | 0.00 | 62 | 1013.6 |
| 20260906085223 | 28 | 354 | 0.0 | 0.0 | 0.00 | 0.00 | 0.00 | 62 | 1013.8 |
| 20260906084718 | 28 | 3 | 0.0 | 0.0 | 0.00 | 0.00 | 0.00 | 62 | 1013.7 |
| 20260906084218 | 28 | 347 | 1.6 | 1.6 | 0.00 | 0.00 | 0.00 | 62 | 1013.7 |
| 20260906083713 | 29 | 4 | 0.0 | 0.0 | 0.00 | 0.00 | 0.00 | 61 | 1013.6 |
| 20260906083203 | 28 | 258 | 1.6 | 3.2 | 0.00 | 0.00 | 0.00 | 61 | 1013.5 |
| 20260906082658 | 28 | 13 | 0.0 | 0.0 | 0.00 | 0.00 | 0.00 | 63 | 1013.4 |
| 20260906082153 | 28 | 3 | 0.0 | 0.0 | 0.00 | 0.00 | 0.00 | 62 | 1013.4 |
| 20260906081649 | 28 | 347 | 0.0 | 0.0 | 0.00 | 0.00 | 0.00 | 63 | 1013.4 |
| 20260906081144 | 28 | 346 | 0.0 | 0.0 | 0.00 | 0.00 | 0.00 | 62 | 1013.6 |
| 20260906080640 | 28 | 351 | 0.0 | 0.0 | 0.00 | 0.00 | 0.00 | 62 | 1013.5 |
| 20260906080136 | 28 | 353 | 0.0 | 0.0 | 0.00 | 0.00 | 0.00 | 63 | 1013.4 |
| 20260906075636 | 28 | 353 | 0.0 | 0.0 | 0.00 | 0.00 | 0.00 | 63 | 1013.6 |
| 20260906075130 | 28 | 353 | 0.0 | 0.0 | 0.00 | 0.00 | 0.00 | 63 | 1013.4 |
| 20260906074626 | 28 | 353 | 0.0 | 0.0 | 0.00 | 0.00 | 0.00 | 64 | 1013.4 |
| 20260906074124 | 28 | 354 | 0.0 | 0.0 | 0.00 | 0.00 | 0.00 | 64 | 1013.4 |
| 20260906073619 | 28 | 354 | 0.0 | 0.0 | 0.00 | 0.00 | 0.00 | 64 | 1013.3 |
| 20260906073115 | 28 | 354 | 0.0 | 0.0 | 0.00 | 0.00 | 0.00 | 64 | 1013.5 |
| 20260906072610 | 28 | 354 | 0.0 | 0.0 | 0.00 | 0.00 | 0.00 | 63 | 1013.4 |
| 20260906072107 | 28 | 353 | 0.0 | 0.0 | 0.00 | 0.00 | 0.00 | 62 | 1013.5 |
| 20260906071603 | 28 | 354 | 0.0 | 0.0 | 0.00 | 0.00 | 0.00 | 63 | 1013.4 |
| 20260906071102 | 28 | 354 | 0.0 | 0.0 | 0.00 | 0.00 | 0.00 | 62 | 1013.7 |
| 20260906070559 | 28 | 354 | 0.0 | 0.0 | 0.00 | 0.00 | 0.00 | 62 | 1013.7 |
| 20260906070054 | 28 | 354 | 0.0 | 0.0 | 0.00 | 0.00 | 0.00 | 63 | 1013.7 |
| 20260906065554 | 28 | 354 | 0.0 | 0.0 | 0.00 | 0.00 | 0.00 | 63 | 1013.6 |
| 20260906065050 | 28 | 354 | 0.0 | 0.0 | 0.00 | 0.00 | 0.00 | 64 | 1013.4 |
| 20260906064545 | 28 | 354 | 0.0 | 0.0 | 0.00 | 0.00 | 0.00 | 63 | 1013.5 |
| 20260906064040 | 28 | 354 | 0.0 | 0.0 | 0.00 | 0.00 | 0.00 | 63 | 1013.5 |
| 20260906063536 | 28 | 354 | 0.0 | 0.0 | 0.00 | 0.00 | 0.00 | 63 | 1013.6 |
| 20260906063032 | 28 | 354 | 0.0 | 0.0 | 0.00 | 0.00 | 0.00 | 63 | 1013.6 |
| 20260906062527 | 28 | 354 | 0.0 | 0.0 | 0.00 | 0.00 | 0.00 | 63 | 1013.8 |
| 20260906062021 | 28 | 354 | 0.0 | 0.0 | 0.00 | 0.00 | 0.00 | 62 | 1013.7 |
| 20260906061517 | 28 | 354 | 0.0 | 0.0 | 0.00 | 0.00 | 0.00 | 62 | 1013.8 |
| 20260906061016 | 29 | 354 | 0.0 | 0.0 | 0.00 | 0.00 | 0.00 | 61 | 1013.7 |
| 20260906060513 | 29 | 354 | 0.0 | 0.0 | 0.00 | 0.00 | 0.00 | 61 | 1013.7 |
| 20260906060010 | 29 | 354 | 0.0 | 0.0 | 0.00 | 0.00 | 0.00 | 61 | 1013.8 |
| 20260906055506 | 29 | 354 | 0.0 | 0.0 | 0.00 | 0.00 | 0.00 | 61 | 1013.7 |
| 20260906055001 | 29 | 354 | 0.0 | 0.0 | 0.00 | 0.00 | 0.00 | 60 | 1013.7 |
| 20260906054500 | 29 | 354 | 0.0 | 0.0 | 0.00 | 0.00 | 0.00 | 60 | 1013.7 |
| 20260906053956 | 30 | 354 | 0.0 | 0.0 | 0.00 | 0.00 | 0.00 | 60 | 1013.7 |
| 20260906053452 | 30 | 354 | 0.0 | 0.0 | 0.00 | 0.00 | 0.00 | 59 | 1013.7 |
| 20260906052948 | 30 | 354 | 0.0 | 0.0 | 0.00 | 0.00 | 0.00 | 59 | 1013.8 |
| 20260906052443 | 30 | 354 | 0.0 | 0.0 | 0.00 | 0.00 | 0.00 | 58 | 1013.5 |
| 20260906051940 | 30 | 354 | 0.0 | 0.0 | 0.00 | 0.00 | 0.00 | 58 | 1013.6 |
| 20260906051435 | 30 | 354 | 0.0 | 0.0 | 0.00 | 0.00 | 0.00 | 56 | 1013.5 |
| 20260906050931 | 30 | 342 | 0.0 | 0.0 | 0.00 | 0.00 | 0.00 | 56 | 1013.4 |
| 20260906050431 | 30 | 358 | 0.0 | 0.0 | 0.00 | 0.00 | 0.00 | 56 | 1013.4 |
| 20260906045930 | 30 | 358 | 0.0 | 0.0 | 0.00 | 0.00 | 0.00 | 56 | 1013.5 |
| 20260906045429 | 30 | 358 | 0.0 | 0.0 | 0.00 | 0.00 | 0.00 | 56 | 1013.3 |
| 20260906044926 | 30 | 358 | 0.0 | 0.0 | 0.00 | 0.00 | 0.00 | 56 | 1013.6 |
| 20260906044425 | 30 | 358 | 0.0 | 0.0 | 0.00 | 0.00 | 0.00 | 56 | 1013.5 |
| 20260906043921 | 30 | 358 | 0.0 | 0.0 | 0.00 | 0.00 | 0.00 | 55 | 1013.5 |
| 20260906043417 | 30 | 358 | 0.0 | 0.0 | 0.00 | 0.00 | 0.00 | 55 | 1013.7 |
| 20260906042913 | 30 | 358 | 0.0 | 0.0 | 0.00 | 0.00 | 0.00 | 55 | 1013.5 |
| 20260906042412 | 30 | 358 | 0.0 | 0.0 | 0.00 | 0.00 | 0.00 | 55 | 1013.4 |
| 20260906041907 | 30 | 358 | 0.0 | 0.0 | 0.00 | 0.00 | 0.00 | 54 | 1013.4 |
| 20260906041403 | 30 | 358 | 0.0 | 0.0 | 0.00 | 0.00 | 0.00 | 54 | 1013.6 |
| 20260906040902 | 30 | 358 | 0.0 | 0.0 | 0.00 | 0.00 | 0.00 | 55 | 1013.5 |
| 20260906040357 | 30 | 358 | 0.0 | 0.0 | 0.00 | 0.00 | 0.00 | 54 | 1013.5 |
| 20260906035853 | 30 | 358 | 0.0 | 0.0 | 0.00 | 0.00 | 0.00 | 55 | 1013.6 |
| 20260906035348 | 31 | 358 | 0.0 | 0.0 | 0.00 | 0.00 | 0.00 | 54 | 1013.7 |
| 20260906034843 | 31 | 358 | 0.0 | 0.0 | 0.00 | 0.00 | 0.00 | 54 | 1013.7 |
| 20260906034338 | 31 | 358 | 0.0 | 0.0 | 0.00 | 0.00 | 0.00 | 54 | 1013.6 |
| 20260906033834 | 31 | 358 | 0.0 | 0.0 | 0.00 | 0.00 | 0.00 | 54 | 1013.4 |
| 20260906033333 | 31 | 358 | 0.0 | 0.0 | 0.00 | 0.00 | 0.00 | 53 | 1013.5 |
| 20260906032830 | 31 | 358 | 0.0 | 0.0 | 0.00 | 0.00 | 0.00 | 53 | 1013.1 |
| 20260906032325 | 31 | 358 | 0.0 | 0.0 | 0.00 | 0.00 | 0.00 | 52 | 1013.3 |
| 20260906031821 | 31 | 358 | 0.0 | 0.0 | 0.00 | 0.00 | 0.00 | 52 | 1013.4 |
| 20260906031316 | 32 | 358 | 0.0 | 0.0 | 0.00 | 0.00 | 0.00 | 52 | 1013.4 |
| 20260906030816 | 31 | 4 | 0.0 | 0.0 | 0.00 | 0.00 | 0.00 | 50 | 1013.7 |
| 20260906030311 | 31 | 13 | 0.0 | 0.0 | 0.00 | 0.00 | 0.00 | 51 | 1013.3 |
| 20260906025810 | 31 | 13 | 0.0 | 0.0 | 0.00 | 0.00 | 0.00 | 51 | 1013.4 |
| 20260906025306 | 31 | 13 | 0.0 | 0.0 | 0.00 | 0.00 | 0.00 | 50 | 1013.4 |
| 20260906024804 | 32 | 13 | 0.0 | 0.0 | 0.00 | 0.00 | 0.00 | 51 | 1013.3 |
| 20260906024303 | 32 | 13 | 0.0 | 0.0 | 0.00 | 0.00 | 0.00 | 50 | 1013.3 |
| 20260906023759 | 32 | 13 | 0.0 | 0.0 | 0.00 | 0.00 | 0.00 | 49 | 1013.1 |
| 20260906023254 | 32 | 13 | 0.0 | 0.0 | 0.00 | 0.00 | 0.00 | 49 | 1013.1 |
| 20260906022749 | 32 | 13 | 0.0 | 0.0 | 0.00 | 0.00 | 0.00 | 49 | 1012.9 |
| 20260906022244 | 32 | 13 | 0.0 | 0.0 | 0.00 | 0.00 | 0.00 | 49 | 1013.0 |
| 20260906021741 | 32 | 13 | 0.0 | 0.0 | 0.00 | 0.00 | 0.00 | 49 | 1012.9 |
| 20260906021240 | 32 | 13 | 0.0 | 0.0 | 0.00 | 0.00 | 0.00 | 49 | 1012.7 |
| 20260906020735 | 32 | 13 | 0.0 | 0.0 | 0.00 | 0.00 | 0.00 | 48 | 1012.8 |
| 20260906020234 | 32 | 13 | 0.0 | 0.0 | 0.00 | 0.00 | 0.00 | 48 | 1012.7 |
| 20260906015729 | 32 | 13 | 0.0 | 0.0 | 0.00 | 0.00 | 0.00 | 48 | 1012.7 |
| 20260906015227 | 32 | 13 | 0.0 | 0.0 | 0.00 | 0.00 | 0.00 | 48 | 1012.8 |
| 20260906014722 | 32 | 13 | 0.0 | 0.0 | 0.00 | 0.00 | 0.00 | 47 | 1012.6 |
| 20260906014218 | 32 | 13 | 0.0 | 0.0 | 0.00 | 0.00 | 0.00 | 47 | 1012.6 |
| 20260906013714 | 32 | 13 | 0.0 | 0.0 | 0.00 | 0.00 | 0.00 | 47 | 1012.8 |
| 20260906013214 | 32 | 13 | 0.0 | 0.0 | 0.00 | 0.00 | 0.00 | 47 | 1012.6 |
| 20260906012709 | 33 | 13 | 0.0 | 0.0 | 0.00 | 0.00 | 0.00 | 46 | 1012.5 |
| 20260906012203 | 33 | 13 | 0.0 | 0.0 | 0.00 | 0.00 | 0.00 | 46 | 1012.5 |
| 20260906011659 | 33 | 13 | 0.0 | 0.0 | 0.00 | 0.00 | 0.00 | 46 | 1012.3 |
| 20260906011153 | 33 | 13 | 0.0 | 0.0 | 0.00 | 0.00 | 0.00 | 45 | 1012.5 |
| 20260906010649 | 33 | 13 | 0.0 | 0.0 | 0.00 | 0.00 | 0.00 | 45 | 1012.4 |
| 20260906010145 | 33 | 13 | 0.0 | 0.0 | 0.00 | 0.00 | 0.00 | 45 | 1012.2 |
| 20260906005644 | 33 | 18 | 0.0 | 0.0 | 0.00 | 0.00 | 0.00 | 44 | 1012.4 |
| 20260906005144 | 34 | 17 | 0.0 | 0.0 | 0.00 | 0.00 | 0.00 | 44 | 1012.5 |
| 20260906004643 | 34 | 17 | 0.0 | 0.0 | 0.00 | 0.00 | 0.00 | 43 | 1012.3 |
| 20260906004138 | 35 | 17 | 0.0 | 0.0 | 0.00 | 0.00 | 0.00 | 42 | 1012.1 |
| 20260906003633 | 35 | 17 | 0.0 | 0.0 | 0.00 | 0.00 | 0.00 | 42 | 1012.5 |
| 20260906003129 | 35 | 17 | 0.0 | 0.0 | 0.00 | 0.00 | 0.00 | 41 | 1012.2 |
| 20260906002619 | 35 | 17 | 0.0 | 0.0 | 0.00 | 0.00 | 0.00 | 40 | 1012.4 |
| 20260906002114 | 35 | 7 | 0.0 | 0.0 | 0.00 | 0.00 | 0.00 | 40 | 1012.3 |
| 20260906001609 | 35 | 2 | 0.0 | 0.0 | 0.00 | 0.00 | 0.00 | 40 | 1012.3 |
| 20260906001108 | 36 | 2 | 0.0 | 0.0 | 0.00 | 0.00 | 0.00 | 40 | 1012.2 |
| 20260906000604 | 36 | 2 | 0.0 | 0.0 | 0.00 | 0.00 | 0.00 | 39 | 1012.2 |
| 20260906000059 | 36 | 8 | 0.0 | 0.0 | 0.00 | 0.00 | 0.00 | 38 | 1012.1 |
| 20260905235558 | 36 | 55 | 1.6 | 1.6 | 0.00 | 0.00 | 0.00 | 37 | 1012.1 |
| 20260905235054 | 37 | 29 | 0.0 | 0.0 | 0.00 | 0.00 | 0.00 | 37 | 1012.3 |
| 20260905234549 | 37 | 30 | 0.0 | 0.0 | 0.00 | 0.00 | 0.00 | 36 | 1012.1 |
| 20260905234044 | 37 | 118 | 3.2 | 3.2 | 0.00 | 0.00 | 0.00 | 36 | 1012.1 |
| 20260905233538 | 37 | 36 | 1.6 | 1.6 | 0.00 | 0.00 | 0.00 | 36 | 1012.1 |
| 20260905233038 | 37 | 21 | 0.0 | 0.0 | 0.00 | 0.00 | 0.00 | 36 | 1011.9 |
| 20260905232533 | 37 | 140 | 3.2 | 3.2 | 0.00 | 0.00 | 0.00 | 36 | 1012.0 |
| 20260905232029 | 37 | 49 | 0.0 | 1.6 | 0.00 | 0.00 | 0.00 | 37 | 1012.0 |
| 20260905231524 | 37 | 13 | 0.0 | 1.6 | 0.00 | 0.00 | 0.00 | 35 | 1012.0 |
| 20260905231020 | 37 | 145 | 0.0 | 1.6 | 0.00 | 0.00 | 0.00 | 36 | 1011.9 |
| 20260905230520 | 38 | 8 | 1.6 | 1.6 | 0.00 | 0.00 | 0.00 | 36 | 1012.0 |
| 20260905230018 | 38 | 38 | 4.8 | 6.4 | 0.00 | 0.00 | 0.00 | 35 | 1012.0 |
| 20260905225513 | 38 | 354 | 0.0 | 0.0 | 0.00 | 0.00 | 0.00 | 36 | 1011.9 |
| 20260905225008 | 38 | 47 | 3.2 | 4.8 | 0.00 | 0.00 | 0.00 | 35 | 1011.9 |
| 20260905224503 | 38 | 12 | 1.6 | 1.6 | 0.00 | 0.00 | 0.00 | 36 | 1011.9 |
| 20260905224002 | 38 | 48 | 3.2 | 3.2 | 0.00 | 0.00 | 0.00 | 36 | 1012.0 |
| 20260905223500 | 38 | 209 | 4.8 | 4.8 | 0.00 | 0.00 | 0.00 | 37 | 1012.0 |
| 20260905222956 | 37 | 3 | 0.0 | 0.0 | 0.00 | 0.00 | 0.00 | 37 | 1011.9 |
| 20260905222455 | 37 | 57 | 1.6 | 3.2 | 0.00 | 0.00 | 0.00 | 38 | 1012.1 |
| 20260905221950 | 38 | 177 | 4.8 | 4.8 | 0.00 | 0.00 | 0.00 | 37 | 1012.1 |
| 20260905221447 | 38 | 97 | 0.0 | 1.6 | 0.00 | 0.00 | 0.00 | 37 | 1012.1 |
| 20260905220943 | 38 | 321 | 0.0 | 0.0 | 0.00 | 0.00 | 0.00 | 39 | 1012.1 |
| 20260905220439 | 38 | 352 | 0.0 | 0.0 | 0.00 | 0.00 | 0.00 | 37 | 1012.1 |
| 20260905215938 | 38 | 0 | 0.0 | 0.0 | 0.00 | 0.00 | 0.00 | 38 | 1012.1 |
| 20260905215433 | 38 | 151 | 1.6 | 3.2 | 0.00 | 0.00 | 0.00 | 37 | 1012.3 |
| 20260905214930 | 38 | 338 | 1.6 | 3.2 | 0.00 | 0.00 | 0.00 | 37 | 1012.2 |
| 20260905214425 | 38 | 330 | 0.0 | 1.6 | 0.00 | 0.00 | 0.00 | 37 | 1012.5 |
| 20260905213920 | 38 | 162 | 3.2 | 4.8 | 0.00 | 0.00 | 0.00 | 37 | 1012.6 |
| 20260905213416 | 38 | 176 | 1.6 | 3.2 | 0.00 | 0.00 | 0.00 | 37 | 1012.4 |
| 20260905212912 | 38 | 359 | 1.6 | 1.6 | 0.00 | 0.00 | 0.00 | 37 | 1012.4 |
| 20260905212406 | 39 | 20 | 1.6 | 1.6 | 0.00 | 0.00 | 0.00 | 37 | 1012.5 |
| 20260905211905 | 38 | 356 | 0.0 | 1.6 | 0.00 | 0.00 | 0.00 | 37 | 1012.7 |
| 20260905211401 | 38 | 11 | 0.0 | 0.0 | 0.00 | 0.00 | 0.00 | 37 | 1012.9 |
| 20260905210857 | 39 | 286 | 1.6 | 3.2 | 0.00 | 0.00 | 0.00 | 38 | 1012.8 |
| 20260905210356 | 39 | 318 | 0.0 | 1.6 | 0.00 | 0.00 | 0.00 | 37 | 1012.7 |
| 20260905205856 | 38 | 328 | 1.6 | 1.6 | 0.00 | 0.00 | 0.00 | 41 | 1012.9 |
| 20260905205351 | 38 | 221 | 3.2 | 3.2 | 0.00 | 0.00 | 0.00 | 38 | 1012.9 |
| 20260905204849 | 38 | 323 | 0.0 | 0.0 | 0.00 | 0.00 | 0.00 | 38 | 1013.1 |
| 20260905204346 | 38 | 331 | 0.0 | 1.6 | 0.00 | 0.00 | 0.00 | 37 | 1013.0 |
| 20260905203839 | 38 | 182 | 3.2 | 4.8 | 0.00 | 0.00 | 0.00 | 37 | 1013.2 |
| 20260905203335 | 39 | 294 | 3.2 | 4.8 | 0.00 | 0.00 | 0.00 | 37 | 1013.3 |
| 20260905202830 | 39 | 295 | 4.8 | 6.4 | 0.00 | 0.00 | 0.00 | 36 | 1013.4 |
| 20260905202325 | 38 | 296 | 1.6 | 3.2 | 0.00 | 0.00 | 0.00 | 38 | 1013.5 |
| 20260905201821 | 38 | 248 | 6.4 | 6.4 | 0.00 | 0.00 | 0.00 | 37 | 1013.5 |
| 20260905201317 | 38 | 273 | 4.8 | 6.4 | 0.00 | 0.00 | 0.00 | 38 | 1013.8 |
| 20260905200816 | 38 | 317 | 1.6 | 1.6 | 0.00 | 0.00 | 0.00 | 38 | 1013.9 |
| 20260905200312 | 38 | 146 | 4.8 | 6.4 | 0.00 | 0.00 | 0.00 | 38 | 1013.8 |
| 20260905195810 | 37 | 258 | 1.6 | 3.2 | 0.00 | 0.00 | 0.00 | 40 | 1013.9 |
| 20260905195306 | 37 | 154 | 4.8 | 6.4 | 0.00 | 0.00 | 0.00 | 40 | 1014.0 |
| 20260905194801 | 38 | 290 | 1.6 | 3.2 | 0.00 | 0.00 | 0.00 | 39 | 1014.1 |
| 20260905194255 | 39 | 328 | 9.7 | 12.9 | 0.00 | 0.00 | 0.00 | 37 | 1014.0 |
| 20260905193754 | 38 | 303 | 1.6 | 1.6 | 0.00 | 0.00 | 0.00 | 40 | 1014.2 |